TimeCDT,TemperatureF,Dew PointF,Humidity,Sea Level PressureIn,VisibilityMPH,Wind Direction,Wind SpeedMPH,Gust SpeedMPH,PrecipitationIn,Events,Conditions,WindDirDegrees,DateUTC
12:00 AM,55.4,51.8,88,29.88,15.0,ENE,20.7,28.8,N/A,Rain,Light Rain,60,2013-05-20 05:00:00
12:38 AM,57.2,50.0,77,29.88,15.0,NE,20.7,27.6,N/A,,Mostly Cloudy,50,2013-05-20 05:38:00
1:00 AM,57,52,76,29.87,9,Calm,Calm,,,,Overcast,,2013-05-20 06:00:00
1:00 AM,57.2,50.0,77,29.87,15.0,NE,24.2,-,N/A,,Mostly Cloudy,50,2013-05-20 06:00:00
2:00 AM,57.2,48.2,72,29.86,15.0,ENE,21.9,28.8,N/A,,Mostly Cloudy,60,2013-05-20 07:00:00
3:00 AM,57.2,50.0,77,29.86,15.0,ENE,21.9,31.1,N/A,,Mostly Cloudy,60,2013-05-20 08:00:00
4:00 AM,57.2,48.2,72,29.84,15.0,ENE,25.3,-,N/A,,Mostly Cloudy,60,2013-05-20 09:00:00
5:00 AM,57.2,48.2,72,29.84,15.0,ENE,21.9,27.6,N/A,,Mostly Cloudy,60,2013-05-20 10:00:00
5:17 AM,57.2,48.2,72,29.84,15.0,NE,20.7,31.1,N/A,Rain,Light Rain,50,2013-05-20 10:17:00
6:00 AM,55.4,48.2,77,29.84,15.0,NE,21.9,28.8,N/A,Rain,Light Rain,50,2013-05-20 11:00:00
6:35 AM,55.4,48.2,77,29.84,8.0,NE,20.7,27.6,N/A,Rain,Light Rain,50,2013-05-20 11:35:00
7:00 AM,54,51,86,29.84,9,Calm,Calm,,,,Unknown Precipitation,,2013-05-20 12:00:00
7:00 AM,53.6,48.2,82,29.84,10.0,NE,20.7,28.8,N/A,Rain,Light Rain,50,2013-05-20 12:00:00
8:00 AM,55.4,48.2,77,29.83,15.0,NE,26.5,32.2,N/A,Rain,Light Rain,50,2013-05-20 13:00:00
9:00 AM,53.6,50.0,88,29.84,10.0,ENE,19.6,31.1,N/A,Rain,Light Rain Showers,60,2013-05-20 14:00:00
10:00 AM,53.6,50.0,88,29.85,8.0,ENE,21.9,33.4,N/A,Rain,Rain Showers,60,2013-05-20 15:00:00
11:00 AM,55.4,50.0,82,29.85,15.0,NE,19.6,27.6,N/A,,Overcast,50,2013-05-20 16:00:00
12:00 PM,57.2,48.2,72,29.85,15.0,ENE,24.2,-,N/A,,Overcast,60,2013-05-20 17:00:00
1:00 PM,57,48,64,29.86,9,Calm,Calm,,,,Unknown Precipitation,,2013-05-20 18:00:00
1:00 PM,57.2,46.4,67,29.86,15.0,ENE,31.1,40.3,N/A,Rain,Light Rain Showers,60,2013-05-20 18:00:00
2:00 PM,53.6,48.2,82,29.88,10.0,ENE,35.7,46.0,N/A,Rain,Light Rain Showers,60,2013-05-20 19:00:00
3:00 PM,53.6,48.2,82,29.88,10.0,ENE,29.9,44.9,N/A,Rain,Light Rain Showers,60,2013-05-20 20:00:00
4:00 PM,51.8,48.2,88,29.89,8.0,ENE,29.9,39.1,N/A,Rain,Light Rain Showers,60,2013-05-20 21:00:00
5:00 PM,51.8,48.2,88,29.90,8.0,NE,28.8,36.8,N/A,Rain,Light Rain Showers,50,2013-05-20 22:00:00
6:00 PM,50.0,46.4,87,29.91,8.0,NE,25.3,34.5,N/A,Rain,Light Rain Showers,50,2013-05-20 23:00:00
7:00 PM,50,46,83,29.92,9,Calm,Calm,,,,Unknown Precipitation,,2013-05-21 00:00:00
7:00 PM,50.0,46.4,87,29.92,8.0,NE,31.1,39.1,N/A,Rain,Light Rain Showers,40,2013-05-21 00:00:00
8:00 PM,48.2,46.4,93,29.93,8.0,NE,25.3,33.4,N/A,Rain,Light Rain Showers,40,2013-05-21 01:00:00
9:00 PM,48.2,42.8,82,29.93,8.0,NE,29.9,41.4,N/A,Rain,Light Rain Showers,50,2013-05-21 02:00:00
10:00 PM,48.2,41.0,76,29.94,10.0,NE,32.2,41.4,N/A,Rain,Light Rain Showers,50,2013-05-21 03:00:00
10:46 PM,50.0,41.0,71,29.95,15.0,NE,20.7,33.4,N/A,,Overcast,50,2013-05-21 03:46:00
11:00 PM,50.0,41.0,71,29.95,15.0,NE,18.4,28.8,N/A,,Overcast,50,2013-05-21 04:00:00